Date String (YYYY-MM-DD hh:mm:ss) UTC,Instrument flags,absolute air pressure of the measurement (hPa),sample flow rate (lpm),inlet stack bypass flow (lpm),air temperature of the measurement (°C),ambient temperature measured by the external sensor (°C),aerosol sample conditioner tube jacket temperature (°C),OPC LED temperature (°C),internal box temperature (°C),relative humidity of the measurement (%),span deviation,mass concentration of particles derived from Lorenz-Mie calculation of OPC scattering (μg/m³),mass concentration of particles derived from Lorenz-Mie calculation of OPC scattering (μg/m³),mass concentration of particles derived from Lorenz-Mie calculation of OPC scattering (μg/m³)
DateTimeUTC,F1_M11,P_M11,Q1_M11,Q2_M11,T1_M11,T2_M11,T3_M11,T4_M11,T5_M11,U1_M11,ZSPAN_M11,X0_M11,X2_M11,X1_M11
2023-08-23 01:00:00,SystemResetWarning,0833.2,5.00,000.00,027.4,025.1,000.0,035.7,029.1,27.5,0001.7,0013.81,0006.51,0005.73
2023-08-23 01:01:00,SystemResetWarning,0833.2,5.01,000.00,027.5,025.6,000.0,035.7,029.3,27.3,0001.8,0013.44,0006.45,0005.71
2023-08-23 01:02:00,SystemResetWarning,0833.2,5.00,000.00,027.5,026.0,000.0,035.8,029.4,26.6,0002.0,0013.86,0006.42,0005.71
2023-08-23 01:03:00,SystemResetWarning,0833.2,4.99,000.00,027.6,026.0,000.0,035.8,029.4,26.1,0001.9,0014.23,0006.47,0005.72
2023-08-23 01:04:00,SystemResetWarning,0833.2,4.99,000.00,027.5,024.7,000.0,035.7,029.1,26.0,0001.5,0014.00,0006.48,0005.71
2023-08-23 01:05:00,SystemResetWarning,0833.2,5.01,000.00,027.5,023.7,000.0,035.6,028.8,26.4,0001.5,0013.55,0006.42,0005.71
2023-08-23 01:06:00,SystemResetWarning,0833.2,5.01,000.00,027.4,024.0,000.0,035.6,028.8,26.5,0001.7,0013.66,0006.44,0005.72
2023-08-23 01:07:00,SystemResetWarning,0833.2,5.00,000.00,027.3,024.3,000.0,035.6,028.8,26.6,0001.7,0013.38,0006.44,0005.74
2023-08-23 01:08:00,SystemResetWarning,0833.2,5.00,000.00,027.4,024.8,000.0,035.7,029.0,26.8,0001.8,0012.91,0006.40,0005.73
2023-08-23 01:09:00,SystemResetWarning,0833.2,5.00,000.00,027.4,025.3,000.0,035.7,029.1,27.1,0001.6,0012.80,0006.43,0005.74
2023-08-23 01:10:00,SystemResetWarning,0833.2,5.00,000.00,027.5,025.7,000.0,035.7,029.3,27.2,0001.6,0012.25,0006.40,0005.74
2023-08-23 01:11:00,SystemResetWarning,0833.2,5.00,000.00,027.5,026.1,000.0,035.8,029.4,27.4,0001.8,0011.97,0006.42,0005.74
2023-08-23 01:12:00,SystemResetWarning,0833.2,4.98,000.00,027.6,025.5,000.0,035.7,029.3,27.1,0001.8,0011.98,0006.44,0005.75
2023-08-23 01:13:00,SystemResetWarning,0833.1,5.00,000.00,027.5,024.0,000.0,035.6,028.9,26.2,0001.3,0012.31,0006.48,0005.75
2023-08-23 01:14:00,SystemResetWarning,0833.4,5.01,000.00,027.4,023.7,000.0,035.6,028.8,25.9,0001.3,0012.48,0006.44,0005.74
2023-08-23 01:15:00,SystemResetWarning,0833.0,5.01,000.00,027.3,024.1,000.0,035.6,028.8,25.9,0001.3,0012.34,0006.42,0005.73
2023-08-23 01:16:00,SystemResetWarning,0833.1,5.00,000.00,027.3,024.5,000.0,035.6,028.9,26.0,0001.5,0012.17,0006.47,0005.74
2023-08-23 01:17:00,SystemResetWarning,0833.1,5.00,000.00,027.4,025.0,000.0,035.7,029.1,26.0,0001.5,0012.42,0006.54,0005.76
2023-08-23 01:18:00,SystemResetWarning,0833.2,5.00,000.00,027.4,025.4,000.0,035.7,029.2,25.7,0001.5,0012.92,0006.65,0005.80
2023-08-23 01:19:00,SystemResetWarning,0833.2,5.00,000.00,027.5,025.8,000.0,035.7,029.3,25.7,0001.5,0013.54,0006.74,0005.85
2023-08-23 01:20:00,SystemResetWarning,0833.1,4.99,000.00,027.5,026.0,000.0,035.7,029.4,25.6,0001.9,0014.23,0006.78,0005.89
2023-08-23 01:21:00,SystemResetWarning,0833.1,4.99,000.00,027.5,024.6,000.0,035.6,029.1,25.9,0002.6,0015.22,0006.85,0005.95
2023-08-23 01:22:00,SystemResetWarning,0833.2,5.01,000.00,027.4,023.6,000.0,035.6,028.8,26.1,0002.8,0015.35,0006.92,0006.02
2023-08-23 01:23:00,SystemResetWarning,0833.3,5.02,000.00,027.3,023.8,000.0,035.5,028.7,26.4,0002.6,0015.49,0006.99,0006.07
2023-08-23 01:24:00,SystemResetWarning,0833.1,4.99,000.00,027.3,024.1,000.0,035.6,028.7,27.0,0002.6,0015.14,0007.02,0006.11
2023-08-23 01:25:00,SystemResetWarning,0833.1,4.99,000.00,027.3,024.6,000.0,035.6,028.9,27.2,0002.5,0014.41,0007.07,0006.15
2023-08-23 01:26:00,SystemResetWarning,0833.2,5.01,000.00,027.3,025.1,000.0,035.6,029.0,26.4,0002.7,0014.42,0007.13,0006.19
2023-08-23 01:27:00,SystemResetWarning,0833.2,5.00,000.00,027.4,025.5,000.0,035.7,029.2,26.0,0002.9,0014.26,0007.14,0006.23
2023-08-23 01:28:00,SystemResetWarning,0833.2,4.99,000.00,027.4,025.9,000.0,035.7,029.3,25.8,0002.5,0013.94,0007.12,0006.24
2023-08-23 01:29:00,SystemResetWarning,0833.2,4.99,000.00,027.5,026.1,000.0,035.7,029.3,25.8,0002.5,0013.31,0007.07,0006.24
2023-08-23 01:30:00,SystemResetWarning,0833.2,4.98,000.00,027.5,024.8,000.0,035.6,029.1,26.0,0002.3,0013.21,0007.02,0006.23
2023-08-23 01:31:00,SystemResetWarning,0833.2,5.01,000.00,027.4,023.6,000.0,035.5,028.7,25.7,0002.6,0013.40,0007.03,0006.24
2023-08-23 01:32:00,SystemResetWarning,0833.2,5.01,000.00,027.3,023.7,000.0,035.5,028.7,25.8,0002.0,0013.69,0007.04,0006.23
2023-08-23 01:33:00,SystemResetWarning,0833.2,4.99,000.00,027.2,024.1,000.0,035.5,028.7,26.0,0001.5,0014.81,0007.05,0006.22
2023-08-23 01:34:00,SystemResetWarning,0833.3,5.01,000.00,027.3,024.6,000.0,035.6,028.9,26.0,0001.9,0014.79,0007.02,0006.22
2023-08-23 01:35:00,SystemResetWarning,0833.2,5.00,000.00,027.3,025.1,000.0,035.6,029.0,25.9,0001.9,0014.83,0006.99,0006.24
2023-08-23 01:36:00,SystemResetWarning,0833.2,5.00,000.00,027.3,025.5,000.0,035.6,029.1,25.7,0001.9,0014.95,0007.01,0006.27
2023-08-23 01:37:00,SystemResetWarning,0833.3,4.99,000.00,027.4,025.9,000.0,035.7,029.3,25.7,0001.8,0015.03,0007.03,0006.29
2023-08-23 01:38:00,SystemResetWarning,0833.3,5.00,000.00,027.5,026.2,000.0,035.7,029.4,25.8,0001.6,0015.46,0007.08,0006.32
2023-08-23 01:39:00,SystemResetWarning,0833.4,4.98,000.00,027.5,025.8,000.0,035.7,029.3,26.1,0001.5,0015.61,0007.09,0006.32
2023-08-23 01:40:00,SystemResetWarning,0833.3,5.00,000.00,027.5,024.3,000.0,035.6,028.9,26.3,0001.5,0015.62,0007.09,0006.34
2023-08-23 01:41:00,SystemResetWarning,0833.3,5.01,000.00,027.4,023.6,000.0,035.5,028.7,26.5,0001.4,0015.62,0007.14,0006.37
2023-08-23 01:42:00,SystemResetWarning,0833.3,5.01,000.00,027.3,023.9,000.0,035.5,028.7,26.7,0001.2,0015.04,0007.13,0006.38
2023-08-23 01:43:00,SystemResetWarning,0833.3,5.00,000.00,027.3,024.3,000.0,035.6,028.8,26.8,0000.9,0014.22,0007.17,0006.38
2023-08-23 01:44:00,SystemResetWarning,0833.2,5.00,000.00,027.3,024.8,000.0,035.6,028.9,26.8,0000.8,0012.96,0007.15,0006.40
2023-08-23 01:45:00,SystemResetWarning,0833.3,5.00,000.00,027.3,025.3,000.0,035.6,029.1,26.7,0000.1,0013.30,0007.19,0006.41
2023-08-23 01:46:00,SystemResetWarning,0833.2,4.99,000.00,027.4,025.7,000.0,035.7,029.2,26.7,-000.1,0013.44,0007.27,0006.44
2023-08-23 01:47:00,SystemResetWarning,0833.2,5.00,000.00,027.4,026.0,000.0,035.7,029.3,26.5,0000.0,0013.77,0007.31,0006.45
2023-08-23 01:48:00,SystemResetWarning,0833.2,5.01,000.00,027.5,026.3,000.0,035.7,029.4,26.5,0000.2,0013.93,0007.30,0006.46
2023-08-23 01:49:00,SystemResetWarning,0833.2,4.98,000.00,027.5,025.2,000.0,035.7,029.2,26.6,-000.1,0013.61,0007.28,0006.47
2023-08-23 01:50:00,SystemResetWarning,0833.2,5.00,000.00,027.4,023.8,000.0,035.6,028.8,26.7,0000.1,0013.40,0007.31,0006.50
2023-08-23 01:51:00,SystemResetWarning,0833.1,5.01,000.00,027.3,023.7,000.0,035.5,028.7,26.5,0000.3,0013.44,0007.32,0006.51
2023-08-23 01:52:00,SystemResetWarning,0833.2,5.01,000.00,027.3,024.1,000.0,035.5,028.8,25.9,0000.2,0013.37,0007.34,0006.52
2023-08-23 01:53:00,SystemResetWarning,0833.2,5.00,000.00,027.3,024.5,000.0,035.6,028.9,25.9,0000.1,0013.72,0007.44,0006.53
2023-08-23 01:54:00,SystemResetWarning,0833.1,5.00,000.00,027.3,025.0,000.0,035.6,029.0,25.2,0000.1,0013.35,0007.43,0006.55
2023-08-23 01:55:00,SystemResetWarning,0833.2,5.00,000.00,027.4,025.4,000.0,035.7,029.1,25.5,0000.4,0013.41,0007.45,0006.57
2023-08-23 01:56:00,SystemResetWarning,0833.2,5.00,000.00,027.4,025.8,000.0,035.7,029.2,24.9,0000.8,0012.95,0007.45,0006.57
2023-08-23 01:57:00,SystemResetWarning,0833.2,5.00,000.00,027.5,026.1,000.0,035.7,029.4,24.7,0000.6,0013.43,0007.42,0006.57
2023-08-23 01:58:00,SystemResetWarning,0833.2,5.00,000.00,027.5,026.0,000.0,035.7,029.3,24.3,0000.3,0013.27,0007.43,0006.58
2023-08-23 01:59:00,SystemResetWarning,0833.2,4.99,000.00,027.5,024.5,000.0,035.6,029.0,24.9,0000.4,0013.10,0007.45,0006.57
